Погода в Чесноковке

Россия / Оренбургская область     51°39′25″N   54°05′11″E
темп.,
°C
ветер,
м/с
пор.,
м/с
влажн.,
%
обл.,
%
осадки,
мм/ч
давл.,
гПа
погр.,
м
12 мая, ср
ср1223:00+17в485485 0.0 1025143
02:00+16всв395498 0.0 1026184
05:00+13в485698 0.0 1026143
08:00+15в5105782 0.0 1027310
11:00+21юв793934 0.0 10271331
14:00+22вюв6731100 0.0 10271510
17:00+23вюв6730100 0.0 10261580
20:00+20вюв364678 0.0 1026107
13 мая, чт
чт1323:00+17в384959 0.0 1026135
02:00+14в410585 0.0 1026154
05:00+13в48595 0.0 1026130
08:00+16в36535 0.0 1027212
11:00+22юв57325 0.0 1027913
14:00+25юв56275 0.0 10261640
17:00+26юв56284 0.0 10261801
20:00+22юв22420 0.0 102523
14 мая, пт
пт1423:00+18в22465 0.0 102616
02:00+16в3349100 0.0 102635
05:00+15в225220 0.0 102614
08:00+18вюв2450100 0.0 1027144
11:00+24ююв3535100 0.0 1027640
14:00+27ю342699 0.0 10261731
17:00+28ююз332345 0.0 10262257
20:00+25ююз11365 0.0 102511
15 мая, сб
сб1523:00+20юв113912 0.0 102511
02:00+18в11415 0.0 102511
05:00+17в22453 0.0 102511
08:00+20вюв24453 0.0 1026128
11:00+26юв35340 0.0 1025631
14:00+29ююз34230 0.0 10242558
17:00+29ююз23220 0.0 10232774
20:00+26вюв11330 0.0 102211
16 мая, вс
вс1623:00+22всв22320 0.0 102211
02:00+19в33416 0.0 102129
05:00+18в22515 0.0 102211
08:00+21вюв374910 0.0 1022196
11:00+27юв443814 0.0 1021558
14:00+30ююз352637 0.0 10203257
17:00+29зюз333118 0.0 10201193
20:00+22вюв49543 0.1 1020171